Location: Central Falls
(41.8900°N, 71.3929°W)
Time: 13:32:42
(UTC+00:00)

Vanguard 2 Rocket - Visible Passes

Search period start: 03 December 2023 00:00
Search period end: 13 December 2023 00:00
Orbit: 553 x 3312 km, 32.9° (Epoch: 03 December)

Date Brightness Start Highest point End Pass type
(mag) Time Alt. Az. Time Alt. Az. Time Alt. Az.
03 Dec 9.4 01:07:29 10° W 01:24:01 42° SSW 01:26:13 40° SSW visible
03 Dec 10.6 03:30:28 10° WSW 03:31:52 11° WSW 03:31:52 11° WSW visible
03 Dec 9.9 21:44:46 10° WSW 22:04:35 64° S 22:21:00 10° ESE visible
04 Dec 9.5 00:02:38 10° W 00:21:14 52° SSW 00:28:22 33° SSE visible
04 Dec 10.1 02:23:04 10° W 02:34:02 24° SW 02:34:02 24° SW visible
04 Dec 9.8 22:58:11 10° W 23:17:49 59° SSW 23:30:36 17° SE visible
05 Dec 9.7 01:17:18 10° W 01:32:52 35° SW 01:36:16 32° SSW visible
05 Dec 9.9 21:54:13 10° W 22:13:55 64° S 22:30:34 10° ESE visible
06 Dec 9.8 00:12:14 10° W 00:30:14 45° SSW 00:38:36 26° SSE visible
06 Dec 10.4 02:34:14 10° W 02:43:26 17° SW 02:44:16 17° SW visible
06 Dec 9.9 23:07:43 10° W 23:26:58 54° SSW 23:41:02 13° SE visible
07 Dec 10.1 01:27:28 10° W 01:41:31 27° SW 01:46:43 23° SSW visible
07 Dec 10.0 22:03:45 10° W 22:23:10 60° SSW 22:39:58 10° ESE visible
08 Dec 10.1 00:22:01 10° W 00:39:02 38° SW 00:49:18 18° SSE visible
08 Dec 10.6 02:48:14 10° WSW 02:51:50 11° SW 02:54:59 10° SW visible
08 Dec 10.1 23:17:22 10° W 23:35:57 47° SSW 23:50:54 10° SE visible
09 Dec 10.4 01:38:22 10° W 01:50:01 20° SW 01:57:43 13° SSW visible
09 Dec 10.1 22:13:20 10° W 22:32:19 55° SSW 22:49:10 10° SE visible
10 Dec 10.5 00:32:09 10° W 00:47:41 30° SW 01:00:05 10° SSE visible
10 Dec 10.2 21:09:53 10° W 21:28:17 61° SSW 21:46:45 10° ESE visible
10 Dec 10.4 23:27:10 10° W 23:44:46 40° SW 23:59:30 10° SSE visible
11 Dec 10.8 01:50:58 10° WSW 01:58:24 14° SW 02:04:58 10° SSW visible
11 Dec 10.3 22:23:02 10° W 22:41:18 49° SSW 22:58:03 10° SE visible
12 Dec 10.7 00:42:54 10° W 00:56:11 23° SW 01:07:26 10° S visible
12 Dec 10.3 21:19:33 10° W 21:37:28 56° SSW 21:55:49 10° SE visible
